Time,TemperatureF,DewpointF,PressureIn,WindDirection,WindDirectionDegrees,WindSpeedMPH,WindSpeedGustMPH,Humidity,HourlyPrecipIn,Conditions,Clouds,dailyrainin,SoftwareType,DateUTC
2013-01-12 00:04:00,40.0,-99.9,-100.00,SW,220,0.0,0.0,-999,0.00,,,-99.99,,2013-01-12 05:04:00,
2013-01-12 00:12:00,40.0,-99.9,-100.00,NE,50,0.0,2.0,-999,0.00,,,-99.99,,2013-01-12 05:12:00,
2013-01-12 00:22:00,39.0,-99.9,-100.00,SSW,205,0.0,0.0,-999,0.00,,,-99.99,,2013-01-12 05:22:00,
2013-01-12 00:32:00,40.0,-99.9,-100.00,South,190,0.0,0.0,-999,0.00,,,-99.99,,2013-01-12 05:32:00,
2013-01-12 00:42:00,40.0,-99.9,-100.00,WSW,245,0.0,0.0,-999,0.00,,,-99.99,,2013-01-12 05:42:00,
2013-01-12 00:53:00,39.0,-99.9,-100.00,WSW,250,0.0,0.0,-999,0.00,,,-99.99,,2013-01-12 05:53:00,
2013-01-12 01:03:00,39.0,-99.9,-100.00,SW,215,0.0,1.0,-999,0.00,,,-99.99,,2013-01-12 06:03:00,
2013-01-12 01:12:00,39.0,-99.9,-100.00,SW,225,0.0,2.0,-999,0.00,,,-99.99,,2013-01-12 06:12:00,
2013-01-12 01:23:00,39.0,-99.9,-100.00,SSW,205,0.0,0.0,-999,0.00,,,-99.99,,2013-01-12 06:23:00,
2013-01-12 01:33:00,39.0,-99.9,-100.00,NNE,25,0.0,0.0,-999,0.00,,,-99.99,,2013-01-12 06:33:00,
2013-01-12 01:43:00,39.0,-99.9,-100.00,East,90,0.0,0.0,-999,0.00,,,-99.99,,2013-01-12 06:43:00,
2013-01-12 01:53:00,39.0,-99.9,-100.00,NNE,20,0.0,0.0,-999,0.00,,,-99.99,,2013-01-12 06:53:00,
2013-01-12 02:02:00,39.0,-99.9,-100.00,SSW,195,0.0,3.0,-999,0.00,,,-99.99,,2013-01-12 07:02:00,
2013-01-12 02:12:00,40.0,-99.9,-100.00,North,10,0.0,1.0,-999,0.00,,,-99.99,,2013-01-12 07:12:00,
2013-01-12 02:22:00,40.0,-99.9,-100.00,NNE,25,0.0,0.0,-999,0.00,,,-99.99,,2013-01-12 07:22:00,
2013-01-12 02:32:00,40.0,-99.9,-100.00,NNE,20,0.0,0.0,-999,0.00,,,-99.99,,2013-01-12 07:32:00,
2013-01-12 02:42:00,41.0,-99.9,-100.00,WSW,245,0.0,0.0,-999,0.00,,,-99.99,,2013-01-12 07:42:00,
2013-01-12 02:53:00,41.0,-99.9,-100.00,NW,315,0.0,0.0,-999,0.00,,,-99.99,,2013-01-12 07:53:00,
2013-01-12 03:02:00,41.0,-99.9,-100.00,NW,315,0.0,0.0,-999,0.00,,,-99.99,,2013-01-12 08:02:00,
2013-01-12 03:12:00,42.0,-99.9,-100.00,NW,305,0.0,0.0,-999,0.00,,,-99.99,,2013-01-12 08:12:00,
2013-01-12 03:22:00,42.0,-99.9,-100.00,NE,45,0.0,0.0,-999,0.00,,,-99.99,,2013-01-12 08:22:00,
2013-01-12 03:32:00,42.0,-99.9,-100.00,NE,50,0.0,0.0,-999,0.00,,,-99.99,,2013-01-12 08:32:00,
2013-01-12 03:42:00,42.0,-99.9,-100.00,SSE,165,0.0,0.0,-999,0.00,,,-99.99,,2013-01-12 08:42:00,
2013-01-12 03:53:00,41.0,-99.9,-100.00,ESE,110,0.0,0.0,-999,0.00,,,-99.99,,2013-01-12 08:53:00,
2013-01-12 04:02:00,42.0,-99.9,-100.00,SW,215,0.0,0.0,-999,0.00,,,-99.99,,2013-01-12 09:02:00,
2013-01-12 04:12:00,41.0,-99.9,-100.00,North,0,0.0,1.0,-999,0.00,,,-99.99,,2013-01-12 09:12:00,
2013-01-12 04:22:00,41.0,-99.9,-100.00,WNW,295,0.0,0.0,-999,0.00,,,-99.99,,2013-01-12 09:22:00,
2013-01-12 04:33:00,42.0,-99.9,-100.00,North,10,0.0,0.0,-999,0.00,,,-99.99,,2013-01-12 09:33:00,
2013-01-12 04:43:00,42.0,-99.9,-100.00,WSW,250,0.0,1.0,-999,0.00,,,-99.99,,2013-01-12 09:43:00,
2013-01-12 04:53:00,41.0,-99.9,-100.00,WSW,250,1.0,2.0,-999,0.00,,,-99.99,,2013-01-12 09:53:00,
2013-01-12 05:02:00,41.0,-99.9,-100.00,WSW,255,0.0,3.0,-999,0.00,,,-99.99,,2013-01-12 10:02:00,
2013-01-12 05:12:00,42.0,-99.9,-100.00,WSW,240,0.0,0.0,-999,0.00,,,-99.99,,2013-01-12 10:12:00,
2013-01-12 05:22:00,42.0,-99.9,-100.00,ENE,70,0.0,0.0,-999,0.00,,,-99.99,,2013-01-12 10:22:00,
2013-01-12 05:33:00,41.0,-99.9,-100.00,South,190,0.0,0.0,-999,0.00,,,-99.99,,2013-01-12 10:33:00,
2013-01-12 05:43:00,42.0,-99.9,-100.00,SW,215,0.0,0.0,-999,0.00,,,-99.99,,2013-01-12 10:43:00,
2013-01-12 05:52:00,42.0,-99.9,-100.00,ENE,60,0.0,0.0,-999,0.00,,,-99.99,,2013-01-12 10:52:00,
2013-01-12 06:02:00,42.0,-99.9,-100.00,South,190,0.0,1.0,-999,0.00,,,-99.99,,2013-01-12 11:02:00,
2013-01-12 06:12:00,42.0,-99.9,-100.00,SSW,195,0.0,0.0,-999,0.00,,,-99.99,,2013-01-12 11:12:00,
2013-01-12 06:23:00,43.0,-99.9,-100.00,ESE,110,0.0,0.0,-999,0.00,,,-99.99,,2013-01-12 11:23:00,
2013-01-12 06:33:00,42.0,-99.9,-100.00,NNE,25,0.0,0.0,-999,0.00,,,-99.99,,2013-01-12 11:33:00,
2013-01-12 06:43:00,42.0,-99.9,-100.00,NE,40,0.0,1.0,-999,0.00,,,-99.99,,2013-01-12 11:43:00,
2013-01-12 06:53:00,43.0,-99.9,-100.00,NE,50,0.0,2.0,-999,0.00,,,-99.99,,2013-01-12 11:53:00,
2013-01-12 07:03:00,42.0,-99.9,-100.00,South,175,0.0,0.0,-999,0.00,,,-99.99,,2013-01-12 12:03:00,
2013-01-12 07:12:00,43.0,-99.9,-100.00,SSW,200,0.0,1.0,-999,0.00,,,-99.99,,2013-01-12 12:12:00,
2013-01-12 07:22:00,42.0,-99.9,-100.00,SW,220,0.0,2.0,-999,0.00,,,-99.99,,2013-01-12 12:22:00,
2013-01-12 07:33:00,42.0,-99.9,-100.00,ENE,70,0.0,1.0,-999,0.00,,,-99.99,,2013-01-12 12:33:00,
2013-01-12 07:43:00,42.0,-99.9,-100.00,NE,55,0.0,0.0,-999,0.00,,,-99.99,,2013-01-12 12:43:00,
2013-01-12 07:53:00,42.0,-99.9,-100.00,SW,230,0.0,0.0,-999,0.00,,,-99.99,,2013-01-12 12:53:00,
2013-01-12 08:03:00,41.0,-99.9,-100.00,WSW,240,0.0,2.0,-999,0.00,,,-99.99,,2013-01-12 13:03:00,
2013-01-12 08:12:00,41.0,-99.9,-100.00,SW,230,0.0,3.0,-999,0.00,,,-99.99,,2013-01-12 13:12:00,
2013-01-12 08:23:00,41.0,-99.9,-100.00,West,260,0.0,3.0,-999,0.00,,,-99.99,,2013-01-12 13:23:00,
2013-01-12 08:33:00,41.0,-99.9,-100.00,SW,225,0.0,1.0,-999,0.00,,,-99.99,,2013-01-12 13:33:00,
2013-01-12 08:43:00,42.0,-99.9,-100.00,WSW,245,0.0,1.0,-999,0.00,,,-99.99,,2013-01-12 13:43:00,
2013-01-12 08:53:00,42.0,-99.9,-100.00,SW,220,0.0,1.0,-999,0.00,,,-99.99,,2013-01-12 13:53:00,
2013-01-12 09:03:00,43.0,-99.9,-100.00,SSW,205,0.0,2.0,-999,0.00,,,-99.99,,2013-01-12 14:03:00,
2013-01-12 09:13:00,44.0,-99.9,-100.00,South,185,0.0,1.0,-999,0.00,,,-99.99,,2013-01-12 14:13:00,
2013-01-12 09:22:00,45.0,-99.9,-100.00,ENE,70,0.0,2.0,-999,0.00,,,-99.99,,2013-01-12 14:22:00,
2013-01-12 09:33:00,45.0,-99.9,-100.00,NE,50,0.0,2.0,-999,0.55,,,-99.99,,2013-01-12 14:33:00,
2013-01-12 09:43:00,46.0,-99.9,-100.00,NNE,20,0.0,2.0,-999,0.00,,,-99.99,,2013-01-12 14:43:00,
2013-01-12 09:53:00,47.0,-99.9,-100.00,SE,125,0.0,1.0,-999,0.00,,,-99.99,,2013-01-12 14:53:00,
2013-01-12 10:04:00,47.0,-99.9,-100.00,NE,50,1.0,2.0,-999,0.55,,,-99.99,,2013-01-12 15:04:00,
2013-01-12 10:13:00,48.0,-99.9,-100.00,East,100,1.0,4.0,-999,0.55,,,-99.99,,2013-01-12 15:13:00,
2013-01-12 10:23:00,49.0,-99.9,-100.00,SSW,210,0.0,3.0,-999,0.55,,,-99.99,,2013-01-12 15:23:00,
2013-01-12 10:34:00,49.0,-99.9,-100.00,SW,230,0.0,2.0,-999,0.55,,,-99.99,,2013-01-12 15:34:00,
2013-01-12 10:43:00,49.0,-99.9,-100.00,SSW,195,0.0,2.0,-999,0.55,,,-99.99,,2013-01-12 15:43:00,
2013-01-12 10:53:00,51.0,-99.9,-100.00,SW,215,0.0,2.0,-999,0.55,,,-99.99,,2013-01-12 15:53:00,
2013-01-12 11:03:00,52.0,-99.9,-100.00,North,5,1.0,2.0,-999,0.00,,,-99.99,,2013-01-12 16:03:00,
2013-01-12 11:13:00,53.0,-99.9,-100.00,NE,55,1.0,3.0,-999,0.00,,,-99.99,,2013-01-12 16:13:00,
2013-01-12 11:23:00,53.0,-99.9,-100.00,NNE,20,1.0,4.0,-999,0.55,,,-99.99,,2013-01-12 16:23:00,
2013-01-12 11:33:00,54.0,-99.9,-100.00,NE,45,1.0,5.0,-999,0.55,,,-99.99,,2013-01-12 16:33:00,
2013-01-12 11:43:00,55.0,-99.9,-100.00,NNE,30,1.0,4.0,-999,0.00,,,-99.99,,2013-01-12 16:43:00,
2013-01-12 11:53:00,56.0,-99.9,-100.00,NE,55,3.0,6.0,-999,0.00,,,-99.99,,2013-01-12 16:53:00,
2013-01-12 12:03:00,57.0,-99.9,-100.00,NE,35,2.0,6.0,-999,0.00,,,-99.99,,2013-01-12 17:03:00,
2013-01-12 12:13:00,58.0,-99.9,-100.00,SSW,195,2.0,6.0,-999,0.00,,,-99.99,,2013-01-12 17:13:00,
2013-01-12 12:23:00,59.0,-99.9,-100.00,South,190,6.0,9.0,-999,0.00,,,-99.99,,2013-01-12 17:23:00,
2013-01-12 12:33:00,59.0,-99.9,-100.00,South,170,3.0,9.0,-999,0.00,,,-99.99,,2013-01-12 17:33:00,
2013-01-12 12:43:00,59.0,-99.9,-100.00,SSW,195,3.0,8.0,-999,0.00,,,-99.99,,2013-01-12 17:43:00,
2013-01-12 12:53:00,60.0,-99.9,-100.00,South,180,2.0,7.0,-999,0.00,,,-99.99,,2013-01-12 17:53:00,
2013-01-12 13:03:00,61.0,-99.9,-100.00,South,185,3.0,7.0,-999,0.00,,,-99.99,,2013-01-12 18:03:00,
2013-01-12 13:13:00,61.0,-99.9,-100.00,South,185,3.0,7.0,-999,0.00,,,-99.99,,2013-01-12 18:13:00,
2013-01-12 13:23:00,62.0,60.0,-100.00,SSW,205,2.0,6.0,90,0.00,,,-99.99,,2013-01-12 18:23:00,
2013-01-12 13:33:00,62.0,59.0,-100.00,SSE,165,4.0,9.0,89,0.00,,,-99.99,,2013-01-12 18:33:00,
2013-01-12 13:43:00,62.0,59.0,-100.00,SSW,205,4.0,10.0,89,0.00,,,-99.99,,2013-01-12 18:43:00,
2013-01-12 13:52:00,62.0,59.0,-100.00,SSW,205,4.0,9.0,88,0.00,,,-99.99,,2013-01-12 18:52:00,
2013-01-12 14:03:00,63.0,60.0,-100.00,South,170,3.0,9.0,89,0.00,,,-99.99,,2013-01-12 19:03:00,
2013-01-12 14:12:00,63.0,59.0,-100.00,SSW,200,1.0,6.0,87,0.00,,,-99.99,,2013-01-12 19:12:00,
2013-01-12 14:23:00,64.0,59.0,-100.00,South,185,2.0,6.0,85,0.00,,,-99.99,,2013-01-12 19:23:00,
2013-01-12 14:33:00,64.0,59.0,-100.00,South,170,1.0,4.0,83,0.00,,,-99.99,,2013-01-12 19:33:00,
2013-01-12 14:43:00,64.0,59.0,-100.00,SSW,205,1.0,6.0,82,0.00,,,-99.99,,2013-01-12 19:43:00,
2013-01-12 14:52:00,65.0,59.0,-100.00,South,190,1.0,3.0,80,0.00,,,-99.99,,2013-01-12 19:52:00,
2013-01-12 15:03:00,65.0,59.0,-100.00,SSE,165,1.0,3.0,81,0.00,,,-99.99,,2013-01-12 20:03:00,
2013-01-12 15:13:00,64.0,59.0,-100.00,South,185,2.0,5.0,81,0.00,,,-99.99,,2013-01-12 20:13:00,
2013-01-12 15:22:00,64.0,59.0,-100.00,SW,230,0.0,4.0,82,0.00,,,-99.99,,2013-01-12 20:22:00,
2013-01-12 15:33:00,64.0,59.0,-100.00,SW,235,0.0,3.0,82,0.00,,,-99.99,,2013-01-12 20:33:00,
2013-01-12 15:42:00,64.0,59.0,-100.00,South,180,1.0,5.0,83,0.00,,,-99.99,,2013-01-12 20:42:00,
2013-01-12 15:53:00,64.0,59.0,-100.00,NE,55,0.0,3.0,84,0.00,,,-99.99,,2013-01-12 20:53:00,
2013-01-12 16:03:00,63.0,59.0,-100.00,WSW,250,0.0,2.0,86,0.00,,,-99.99,,2013-01-12 21:03:00,
2013-01-12 16:12:00,63.0,59.0,-100.00,NE,55,1.0,4.0,86,0.00,,,-99.99,,2013-01-12 21:12:00,
2013-01-12 16:22:00,63.0,59.0,-100.00,WSW,240,1.0,3.0,88,0.00,,,-99.99,,2013-01-12 21:22:00,
2013-01-12 16:33:00,62.0,59.0,-100.00,WSW,240,0.0,3.0,90,0.00,,,-99.99,,2013-01-12 21:33:00,
2013-01-12 16:43:00,62.0,60.0,-100.00,NNE,30,0.0,3.0,93,0.00,,,-99.99,,2013-01-12 21:43:00,
2013-01-12 16:52:00,61.0,60.0,-100.00,SW,230,0.0,2.0,95,0.00,,,-99.99,,2013-01-12 21:52:00,
2013-01-12 17:03:00,61.0,59.0,-100.00,SSW,195,1.0,2.0,95,0.00,,,-99.99,,2013-01-12 22:03:00,
2013-01-12 17:13:00,61.0,-99.9,-100.00,West,280,0.0,2.0,-999,0.00,,,-99.99,,2013-01-12 22:13:00,
2013-01-12 17:23:00,61.0,-99.9,-100.00,North,0,0.0,3.0,-999,0.00,,,-99.99,,2013-01-12 22:23:00,
2013-01-12 17:33:00,61.0,-99.9,-100.00,ESE,120,0.0,4.0,-999,0.00,,,-99.99,,2013-01-12 22:33:00,
2013-01-12 17:44:00,61.0,-99.9,-100.00,SW,225,1.0,4.0,-999,0.00,,,-99.99,,2013-01-12 22:44:00,
2013-01-12 17:53:00,61.0,-99.9,-100.00,SW,235,0.0,3.0,-999,0.00,,,-99.99,,2013-01-12 22:53:00,
2013-01-12 18:03:00,61.0,-99.9,-100.00,South,190,0.0,2.0,-999,0.00,,,-99.99,,2013-01-12 23:03:00,
2013-01-12 18:13:00,61.0,-99.9,-100.00,NNE,15,0.0,3.0,-999,0.00,,,-99.99,,2013-01-12 23:13:00,
2013-01-12 18:23:00,60.0,-99.9,-100.00,SSE,165,0.0,1.0,-999,0.00,,,-99.99,,2013-01-12 23:23:00,
2013-01-12 18:33:00,60.0,-99.9,-100.00,North,0,0.0,2.0,-999,0.00,,,-99.99,,2013-01-12 23:33:00,
2013-01-12 18:43:00,60.0,-99.9,-100.00,West,270,0.0,2.0,-999,0.00,,,-99.99,,2013-01-12 23:43:00,
2013-01-12 18:53:00,60.0,-99.9,-100.00,WNW,285,0.0,1.0,-999,0.00,,,-99.99,,2013-01-12 23:53:00,
2013-01-12 19:03:00,60.0,-99.9,-100.00,SSE,150,0.0,2.0,-999,0.00,,,-99.99,,2013-01-13 00:03:00,
2013-01-12 19:13:00,60.0,-99.9,-100.00,WSW,255,1.0,3.0,-999,0.00,,,-99.99,,2013-01-13 00:13:00,
2013-01-12 19:23:00,59.0,-99.9,-100.00,NE,45,0.0,2.0,-999,0.00,,,-99.99,,2013-01-13 00:23:00,
2013-01-12 19:33:00,58.0,-99.9,-100.00,ENE,60,4.0,6.0,-999,0.00,,,-99.99,,2013-01-13 00:33:00,
2013-01-12 19:43:00,60.0,-99.9,-100.00,WNW,290,0.0,10.0,-999,0.55,,,-99.99,,2013-01-13 00:43:00,
2013-01-12 19:53:00,60.0,-99.9,-100.00,East,100,0.0,1.0,-999,3.39,,,-99.99,,2013-01-13 00:53:00,
2013-01-12 20:03:00,60.0,-99.9,-100.00,NE,40,0.0,3.0,-999,0.00,,,-99.99,,2013-01-13 01:03:00,
2013-01-12 20:12:00,60.0,-99.9,-100.00,South,185,0.0,5.0,-999,1.10,,,-99.99,,2013-01-13 01:12:00,
2013-01-12 20:23:00,61.0,-99.9,-100.00,NNE,30,1.0,7.0,-999,0.00,,,-99.99,,2013-01-13 01:23:00,
2013-01-12 20:33:00,61.0,-99.9,-100.00,West,280,0.0,4.0,-999,0.00,,,-99.99,,2013-01-13 01:33:00,
2013-01-12 20:43:00,60.0,-99.9,-100.00,NE,50,0.0,2.0,-999,0.00,,,-99.99,,2013-01-13 01:43:00,
2013-01-12 20:53:00,60.0,-99.9,-100.00,NE,45,0.0,1.0,-999,0.00,,,-99.99,,2013-01-13 01:53:00,
2013-01-12 21:03:00,60.0,-99.9,-100.00,NNW,340,0.0,3.0,-999,0.00,,,-99.99,,2013-01-13 02:03:00,
2013-01-12 21:13:00,60.0,-99.9,-100.00,WSW,250,0.0,0.0,-999,0.00,,,-99.99,,2013-01-13 02:13:00,
2013-01-12 21:23:00,60.0,-99.9,-100.00,NE,55,1.0,2.0,-999,0.00,,,-99.99,,2013-01-13 02:23:00,
2013-01-12 21:33:00,59.0,-99.9,-100.00,South,185,0.0,1.0,-999,0.00,,,-99.99,,2013-01-13 02:33:00,
2013-01-12 21:43:00,59.0,-99.9,-100.00,ENE,70,0.0,1.0,-999,0.55,,,-99.99,,2013-01-13 02:43:00,
2013-01-12 21:53:00,59.0,-99.9,-100.00,NE,45,1.0,3.0,-999,0.55,,,-99.99,,2013-01-13 02:53:00,
2013-01-12 22:03:00,58.0,-99.9,-100.00,NE,50,0.0,1.0,-999,0.55,,,-99.99,,2013-01-13 03:03:00,
2013-01-12 22:12:00,58.0,-99.9,-100.00,ENE,60,0.0,1.0,-999,0.55,,,-99.99,,2013-01-13 03:12:00,
2013-01-12 22:23:00,57.0,-99.9,-100.00,South,180,0.0,0.0,-999,0.00,,,-99.99,,2013-01-13 03:23:00,
2013-01-12 22:33:00,58.0,-99.9,-100.00,ENE,75,0.0,2.0,-999,0.55,,,-99.99,,2013-01-13 03:33:00,
2013-01-12 22:43:00,57.0,-99.9,-100.00,South,190,0.0,1.0,-999,0.55,,,-99.99,,2013-01-13 03:43:00,
2013-01-12 22:53:00,56.0,-99.9,-100.00,ENE,60,0.0,3.0,-999,0.55,,,-99.99,,2013-01-13 03:53:00,
2013-01-12 23:03:00,57.0,-99.9,-100.00,NE,35,1.0,2.0,-999,0.55,,,-99.99,,2013-01-13 04:03:00,
2013-01-12 23:12:00,57.0,-99.9,-100.00,NE,35,1.0,2.0,-999,0.55,,,-99.99,,2013-01-13 04:12:00,
2013-01-12 23:23:00,56.0,-99.9,-100.00,NNW,335,0.0,0.0,-999,0.55,,,-99.99,,2013-01-13 04:23:00,
2013-01-12 23:33:00,56.0,-99.9,-100.00,WSW,250,0.0,0.0,-999,0.55,,,-99.99,,2013-01-13 04:33:00,
2013-01-12 23:43:00,57.0,-99.9,-100.00,NNE,30,0.0,0.0,-999,0.55,,,-99.99,,2013-01-13 04:43:00,
2013-01-12 23:53:00,57.0,-99.9,-100.00,ENE,60,0.0,1.0,-999,0.00,,,-99.99,,2013-01-13 04:53:00,